Time,TemperatureF,DewpointF,PressureIn,WindDirection,WindDirectionDegrees,WindSpeedMPH,WindSpeedGustMPH,Humidity,HourlyPrecipIn,Conditions,Clouds,dailyrainin,SolarRadiationWatts/m^2,SoftwareType,DateUTC
2013-01-28 00:11:00,33.0,33.0,-100.00,SSE,153,1.0,2.0,96,-99.99,,,0.00,0.000000,,2013-01-28 08:11:00,
2013-01-28 01:11:00,33.0,32.0,-100.00,South,170,1.0,4.0,97,-99.99,,,0.00,0.000000,,2013-01-28 09:11:00,
2013-01-28 02:11:00,33.0,32.0,-100.00,NNW,347,2.0,7.0,97,-99.99,,,0.00,0.000000,,2013-01-28 10:11:00,
2013-01-28 03:11:00,32.0,31.0,-100.00,SSE,147,2.0,3.0,97,-99.99,,,0.00,0.000000,,2013-01-28 11:11:00,
2013-01-28 04:11:00,32.0,31.0,-100.00,SE,137,1.0,3.0,97,-99.99,,,0.00,0.000000,,2013-01-28 12:11:00,
2013-01-28 05:12:00,33.0,32.0,-100.00,ESE,117,2.0,4.0,97,-99.99,,,0.00,0.000000,,2013-01-28 13:12:00,
2013-01-28 06:12:00,35.0,33.0,-100.00,ENE,74,2.0,4.0,92,-99.99,,,0.00,0.000000,,2013-01-28 14:12:00,
2013-01-28 07:12:00,34.0,33.0,-100.00,SE,125,2.0,4.0,93,-99.99,,,0.00,0.000000,,2013-01-28 15:12:00,
2013-01-28 08:12:00,40.0,33.0,-100.00,West,265,2.0,4.0,77,-99.99,,,0.00,0.230000,,2013-01-28 16:12:00,
2013-01-28 09:12:00,37.0,34.0,-100.00,North,349,2.0,5.0,87,-99.99,,,0.00,12.670000,,2013-01-28 17:12:00,
2013-01-28 10:12:00,39.0,34.0,-100.00,North,355,1.0,4.0,82,-99.99,,,0.00,34.750000,,2013-01-28 18:12:00,
2013-01-28 12:11:00,43.0,35.0,-100.00,NE,38,2.0,4.0,73,-99.99,,,0.00,81.239998,,2013-01-28 20:11:00,
2013-01-28 13:11:00,43.0,35.0,-100.00,SSW,200,8.0,16.0,71,-99.99,,,0.00,131.789993,,2013-01-28 21:11:00,
2013-01-28 14:11:00,43.0,35.0,-100.00,SW,226,5.0,11.0,74,-99.99,,,0.00,88.559998,,2013-01-28 22:11:00,
2013-01-28 15:11:00,42.0,37.0,-100.00,NNW,339,3.0,6.0,82,-99.99,,,0.00,43.700001,,2013-01-28 23:11:00,
2013-01-28 16:12:00,43.0,36.0,-100.00,SW,225,4.0,11.0,75,-99.99,,,0.00,39.400002,,2013-01-29 00:12:00,
2013-01-28 17:11:00,44.0,35.0,-100.00,SSW,206,5.0,11.0,71,-99.99,,,0.00,12.780000,,2013-01-29 01:11:00,
2013-01-28 18:11:00,43.0,37.0,-100.00,North,350,3.0,6.0,79,-99.99,,,0.00,1.160000,,2013-01-29 02:11:00,
2013-01-28 19:11:00,42.0,37.0,-100.00,North,353,6.0,13.0,82,-99.99,,,0.00,0.120000,,2013-01-29 03:11:00,
2013-01-28 20:02:00,41.0,37.0,-100.00,North,358,6.0,13.0,85,-99.99,,,0.00,0.120000,,2013-01-29 04:02:00,
2013-01-28 20:11:00,41.0,37.0,-100.00,North,358,6.0,13.0,85,-99.99,,,0.00,0.120000,,2013-01-29 04:11:00,
2013-01-28 21:12:00,41.0,37.0,-100.00,NNE,22,4.0,8.0,85,-99.99,,,0.00,0.120000,,2013-01-29 05:12:00,
2013-01-28 22:11:00,42.0,37.0,-100.00,North,355,7.0,13.0,84,-99.99,,,0.00,0.120000,,2013-01-29 06:11:00,
2013-01-28 23:11:00,42.0,37.0,-100.00,NW,322,3.0,8.0,83,-99.99,,,0.00,0.000000,,2013-01-29 07:11:00,